Location: La Silve
(44.2414°N, 5.8889°E)
Time: 05:27:26
(UTC+00:00)

Cosmos 1461 - Pass Details

Date: 01 December 2020
Orbit: 501 x 664 km, 65.0° (Epoch: 24 January)

Event Time Altitude Azimuth Distance (km) Brightness Sun altitude
Rises 17:56:14 0° 192° (SSW) 2,867 6.8 -20.4°
Reaches altitude 10° 17:58:34 10° 184° (S) 1,992 5.8 -20.8°
Enters shadow 18:02:00 36° 140° (SE) 1,017 3.9 -21.4°
